Location: Beeston
(52.7000°N, 0.8167°E)
Time: 20:58:09
(UTC+00:00)

Cosmos 44 - Pass Details

Date: 15 May 2026
Orbit: 568 x 782 km, 65.1° (Epoch: 10 June)

Event Time Altitude Azimuth Distance (km) Brightness Sun altitude
Rises 20:49:26 0° 315° (NW) 3,274 9.4 -8.0°
Reaches altitude 10° 20:51:59 10° 322° (NW) 2,348 7.8 -8.3°
Maximum altitude 20:57:11 46° 35° (NE) 1,047 4.3 -8.8°
Drops below altitude 10° 21:02:18 10° 108° (ESE) 2,298 5.5 -9.3°
Enters shadow 21:02:46 - 110° (ESE) 2,465 5.6 -9.3°
